Find Starlink 32425

NORAD ID: 61216 Int'l Des: 2024-171 Owner: SPXS Country: US Constellation: starlink operational
LEOCIRCULAR

实时位置

正在加载3D地球...

关于 Starlink 32425

正在加载描述...

即将过境

Passes for default location (London). Set your location on the main map for personalized predictions.

高度历史

Loading altitude history...

两行轨道根数

1 61216U 24171S 26125.22989636 -.00000944 00000-0 -19751-4 0 9998
2 61216 53.1610 59.9140 0001438 98.4814 261.6350 15.30181577 91025
Epoch: May 5, 2026 • Age: 14 hours

当前状态

高度 493.3 km
速度 7.62 km/s
星下点 -49.69°S, 147.71°E
发射日期 Sep 20, 2024
运行时间 1.6 years
类型 internet

技术详情

分类 Payload
质量 730.00 kg
干质量 700.00 kg
总质量 730.00 kg
长度 0.30 m
直径 4.10 m
跨度 29.00 m
形状 Box + pan
制造商 SPXS
平台类型 Starlink V2M
阶段状态 In Orbit
所有者/国家 SPXS/US

Most Searched